Showing default

HAWK-5A, 52757

Orbit data source: Space-Track

HAWK-5A, 52757 is a payload satellite owned by HawkEye 360 (US) in SSO that was launched on Wed, 25 May 2022 UTC via an FALCON 9 launch vehicle from the Air Force Eastern Test Range (AFETR). Payload-class satellites include a variety of spacecraft equipped with specific instruments for various scientific and technological missions. These include communications satellites like Starlink; space stations such as the ISS; scientific satellites like the Hubble; Earth observation satellites from companies like Planet Labs, Umbra, and HawkEye 360; GPS; miniature CubeSats for education and research; and military/defense satellites.

Loading next visibility...
Identifier
52757, 2022-057AB
Orbit
SSO
Country
Flag of USUS
Related business
Manufacturer
UTIAS-SFL
Mission
Operational Commercial Sigint
Bus & Motor
DEFIANT, Unknown motor
Mass
31 kg wet, 30 kg dry
Launch date (UTC)
2022-05-25 (4 years ago)
Launch vehicle
FALCON 9
Launch site
Air Force Eastern Test Range (AFETR)
Object type
Payload
Rocket body
Debris
Shape & HBR
Box + 2 Pan, 1.0 m
Radar Cross Section
0.348 m², Medium (>0.1 m² and < 1m²)

Expand to show TLE details & history
Last TLE update: 17 hours ago

TLE from 17 hours ago
0 HAWK-5A
1 52757U 22057AB  25348.90782188  .00012599  00000-0  28109-3 0  9996
2 52757  97.6357 132.2413 0006260  23.9362 336.2175 15.43691590197849
Epoch: 2025-12-14T21:47Z
TLE epoch observation values (Epoch: 2025-12-14T21:47:15.810Z)
Latitude
-0.00004°
Longitude
81.61143°
Altitude
434.438 km
Speed
7.653 km/s
True Right ascension
08h 48m 57s
True Declination
0° 00' 00"
Sunlit
Object was in full shadow at epoch
Visualization orbit readout
Latitude
Unknown
Longitude
Unknown
Altitude
Unknown
Speed
Unknown
Apparent Right ascension
Unknown
Apparent Declination
Unknown
Sunlit
N/A
Visualization observer readout
Local Sidereal Time
13:22:44
Azimuth
Unknown
Elevation
Unknown
Doppler factor
Unknown
Orbital elements
Apogee altitude
436.433 km
Perigee altitude
427.906 km
Semi-major axis
6,810.307 km
Eccentricity
0.00063
Inclination
97.6357°
RAAN
132.2413°
Arg. of periapsis
23.9362°
True anomaly
336.18855°
Mean anomaly
336.2175°
Eccentric anomaly
336.20303°
Mean motion
3.86183 °/min
Orbital period
93.22 mins
BSTAR
0.00028109
Loading maneuver chart data...
Computing Atmospheric mass density...

Documentation

Showing up to 5 results
|